TimeEST,TemperatureF,Dew PointF,Humidity,Sea Level PressureIn,VisibilityMPH,Wind Direction,Wind SpeedMPH,Gust SpeedMPH,PrecipitationIn,Events,Conditions,WindDirDegrees,DateUTC
12:53 AM,19.9,10.0,65,30.15,9.0,SW,10.4,-,N/A,,Overcast,220,2002-01-01 05:53:00
1:53 AM,19.9,10.9,68,30.15,7.0,SW,13.8,-,0.00,Snow,Light Snow,220,2002-01-01 06:53:00
2:53 AM,19.9,12.0,71,30.16,7.0,SW,11.5,-,0.00,Snow,Light Snow,220,2002-01-01 07:53:00
3:53 AM,19.9,12.9,74,30.17,8.0,SW,11.5,-,0.00,,Overcast,220,2002-01-01 08:53:00
4:53 AM,19.9,12.9,74,30.17,7.0,SSW,11.5,-,0.00,Snow,Light Snow,210,2002-01-01 09:53:00
5:53 AM,19.9,12.9,74,30.18,8.0,SW,12.7,-,0.00,Snow,Light Snow,220,2002-01-01 10:53:00
6:53 AM,19.9,14.0,78,30.20,5.0,SW,10.4,-,0.00,Snow,Light Snow,220,2002-01-01 11:53:00
7:53 AM,19.9,14.0,78,30.22,4.0,SSW,10.4,-,0.00,Snow,Light Snow,210,2002-01-01 12:53:00
8:19 AM,19.4,14.0,80,30.21,5.0,SSW,8.1,-,0.00,Snow,Light Snow,200,2002-01-01 13:19:00
8:53 AM,19.9,14.0,78,30.26,2.0,SSW,8.1,-,0.00,Snow,Light Snow,210,2002-01-01 13:53:00
9:08 AM,19.4,15.8,86,30.23,1.2,SSW,4.6,-,0.00,Snow,Light Snow,210,2002-01-01 14:08:00
9:16 AM,19.4,15.8,86,30.23,1.2,SW,9.2,-,0.00,Snow,Light Snow,220,2002-01-01 14:16:00
9:30 AM,19.4,15.8,86,30.24,2.0,SSW,9.2,-,0.00,Snow,Light Snow,210,2002-01-01 14:30:00
9:53 AM,19.9,16.0,85,30.28,2.0,SSW,9.2,-,0.00,Snow,Light Snow,210,2002-01-01 14:53:00
10:07 AM,19.4,15.8,86,30.25,1.5,South,11.5,-,0.00,Snow,Light Snow,190,2002-01-01 15:07:00
10:24 AM,19.4,15.8,86,30.25,2.0,SSW,5.8,-,0.00,Snow,Light Snow,200,2002-01-01 15:24:00
10:37 AM,21.2,17.6,86,30.26,3.0,SSW,8.1,-,0.00,Snow,Light Snow,200,2002-01-01 15:37:00
10:53 AM,21.9,17.1,82,30.29,3.0,SSW,9.2,-,0.00,,Haze,200,2002-01-01 15:53:00
11:53 AM,23.0,16.0,74,30.29,10.0,WSW,9.2,-,N/A,,Overcast,240,2002-01-01 16:53:00
12:53 PM,25.0,16.0,69,30.28,10.0,WSW,8.1,-,N/A,,Overcast,240,2002-01-01 17:53:00
1:53 PM,27.0,15.1,61,30.28,10.0,WSW,8.1,-,N/A,,Mostly Cloudy,250,2002-01-01 18:53:00
2:53 PM,27.0,14.0,58,30.30,10.0,SW,10.4,-,N/A,,Overcast,230,2002-01-01 19:53:00
3:53 PM,27.0,14.0,58,30.33,10.0,SW,9.2,-,N/A,,Overcast,220,2002-01-01 20:53:00
4:53 PM,26.1,15.1,63,30.34,10.0,SSW,11.5,-,N/A,,Overcast,210,2002-01-01 21:53:00
5:53 PM,26.1,17.1,69,30.35,10.0,SW,8.1,-,N/A,,Overcast,230,2002-01-01 22:53:00
6:41 PM,26.6,15.8,64,30.33,10.0,SW,10.4,-,N/A,,Overcast,230,2002-01-01 23:41:00
6:53 PM,26.1,16.0,66,30.36,10.0,SW,8.1,-,N/A,,Overcast,230,2002-01-01 23:53:00
7:09 PM,26.6,15.8,64,30.34,10.0,SW,9.2,-,N/A,,Overcast,230,2002-01-02 00:09:00
7:53 PM,26.1,17.1,69,30.36,10.0,SW,10.4,-,N/A,,Overcast,220,2002-01-02 00:53:00
8:53 PM,25.0,17.1,72,30.38,10.0,SW,8.1,-,N/A,,Overcast,220,2002-01-02 01:53:00
9:53 PM,26.1,17.1,69,30.38,10.0,SW,10.4,-,N/A,,Overcast,220,2002-01-02 02:53:00
10:53 PM,26.1,18.0,71,30.38,7.0,SW,9.2,-,0.00,Snow,Light Snow,220,2002-01-02 03:53:00
11:22 PM,26.6,19.4,74,30.35,6.0,SW,6.9,-,0.00,Snow,Light Snow,220,2002-01-02 04:22:00
11:31 PM,24.8,19.4,80,30.36,5.0,SSW,8.1,-,0.00,Snow,Light Snow,210,2002-01-02 04:31:00
11:53 PM,26.1,19.0,75,30.38,7.0,SW,8.1,-,0.00,Snow,Light Snow,220,2002-01-02 04:53:00